Location: Fort Worth, Tx
(32.7431°N, 97.3695°W)
Time: 05:34:38
(UTC-05:00)

Altair - Pass Details

Date: 07 October 2023
Orbit: 1501 x 1682 km, 47.2° (Epoch: 06 December)

Event Time Altitude Azimuth Distance (km) Brightness Sun altitude
Rises 03:49:36 0° 262° (W) 4,719 - -55.3°
Reaches altitude 10° 03:52:50 10° 269° (W) 3,761 - -54.8°
Maximum altitude 04:01:54 45° 339° (NNW) 2,097 - -53.4°
Exits shadow 04:06:16 30° 29° (NNE) 2,610 8.8 -52.8°
Drops below altitude 10° 04:11:20 10° 50° (NE) 3,900 10.1 -51.9°
Sets 04:14:47 0° 57° (ENE) 4,907 10.8 -51.4°
